Theta_e
321 316 313 311 309 310 311 313 317 319 320 319 319 320 320 320 321 321 318 316 317 319 320 321 320 319 319 317 318 321 322 322 323 323 321 320 321 323 323 324 324 324
323 316 311 309 310 312 312 313 315 317 319 320 320 321 320 318 319 321 320 317 317 317 317 319 320 320 318 317 319 321 321 321 320 319 318 318 320 322 323 324 324 323
322 314 310 311 314 314 314 314 316 318 320 321 320 321 321 319 319 321 321 318 316 315 316 318 319 319 319 319 320 320 320 319 318 317 318 320 322 323 323 324 323 322
318 313 312 314 316 315 315 315 316 318 320 321 321 321 320 319 318 319 319 317 315 317 319 320 320 321 321 321 320 319 319 318 317 318 320 322 323 322 323 322 320 319
315 313 314 316 316 315 315 315 316 318 320 321 321 321 320 319 318 318 317 314 315 318 319 319 321 321 321 321 320 320 319 319 319 320 322 322 321 320 321 319 317 316
314 314 315 317 316 315 315 315 316 318 319 320 321 320 319 316 313 315 314 313 317 320 319 318 319 319 320 320 320 321 321 320 321 322 321 320 317 316 317 317 316 316
317 316 317 319 317 315 315 314 315 316 318 319 319 317 314 310 309 311 311 314 319 320 319 319 319 319 319 319 319 321 322 322 322 321 320 318 314 313 313 314 314 315
319 318 318 320 318 316 315 313 313 315 316 316 314 311 308 306 307 308 309 314 319 319 320 320 320 320 320 318 318 319 322 323 322 321 320 318 315 314 313 313 313 314
320 319 320 321 319 318 315 313 312 314 314 312 309 307 306 306 306 306 307 313 318 318 318 319 319 319 319 318 316 315 317 320 322 322 321 319 318 316 314 313 313 314
321 320 321 321 321 319 315 312 311 313 312 309 306 306 307 307 306 306 306 310 315 316 315 315 316 316 316 316 315 312 310 312 316 318 318 317 315 313 311 311 311 313
322 321 322 322 321 321 316 311 312 314 311 307 306 307 308 308 308 308 307 308 311 312 312 312 311 311 311 312 311 309 306 306 309 310 311 311 310 309 309 308 308 311
322 323 323 322 322 321 314 310 313 314 309 306 307 308 309 310 310 311 311 310 309 308 308 309 308 308 307 307 307 305 304 305 305 306 308 310 310 310 310 308 308 309
321 323 322 322 323 319 310 308 314 313 307 306 307 309 311 311 311 312 313 313 311 309 307 307 307 307 306 306 305 305 305 306 307 308 309 310 310 311 311 310 310 309
320 321 322 322 320 314 308 311 316 311 305 305 308 311 313 313 312 313 313 313 313 312 311 310 308 307 307 307 307 308 308 309 309 310 310 310 311 310 311 311 310 310
322 321 321 320 316 313 315 318 318 310 305 306 309 312 315 314 313 313 314 314 314 314 314 313 312 310 308 308 309 310 311 311 311 311 310 310 310 310 310 310 310 310
322 322 321 318 317 319 321 321 317 309 306 309 312 314 315 315 315 314 314 314 313 314 314 314 314 313 312 310 309 310 311 312 312 312 312 311 311 310 310 310 310 310
322 321 320 319 320 322 321 321 319 314 312 314 315 315 316 316 316 316 315 314 314 314 314 314 314 313 313 313 312 311 311 311 312 313 313 313 312 312 311 310 310 310
321 321 321 321 322 322 322 322 321 319 318 318 318 318 318 317 318 318 316 315 314 314 314 314 314 314 314 314 314 313 313 312 312 312 312 312 312 312 312 311 311 311
321 321 322 322 322 323 322 322 321 321 321 321 321 321 320 319 320 319 317 316 315 315 315 314 314 314 314 314 314 314 314 313 313 313 313 313 313 312 312 312 311 311
321 321 322 322 322 322 322 321 321 321 321 321 322 322 321 320 320 319 318 316 316 316 316 315 315 315 315 316 316 316 316 315 314 314 314 314 314 314 314 313 313 313
318 319 320 319 319 320 321 321 321 321 321 321 321 322 321 321 321 320 319 318 317 317 318 317 318 317 318 318 318 318 319 318 317 316 315 314 314 314 314 315 315 315
313 315 316 316 315 315 317 319 320 320 321 321 321 322 321 321 321 321 320 320 319 319 319 319 319 319 319 319 319 319 319 319 319 319 318 317 316 315 315 315 315 315
310 311 312 313 313 312 314 316 318 318 319 320 320 320 320 320 320 320 320 320 320 320 320 320 320 320 320 319 319 319 320 320 320 320 320 319 319 318 317 315 315 315
309 310 310 311 312 312 311 312 314 315 317 318 318 319 319 319 319 318 318 318 318 318 318 318 318 319 319 319 319 319 319 319 319 319 320 320 320 319 319 318 317 316
304 306 307 309 310 310 308 307 309 310 312 314 315 316 316 316 317 317 316 316 316 316 316 316 316 316 317 318 318 318 318 318 318 318 319 319 319 319 319 319 318 318
302 302 302 303 304 304 303 304 304 304 305 307 309 310 311 312 313 313 313 313 313 313 313 314 314 314 315 315 315 316 316 316 317 317 317 317 318 318 318 318 318 317
Wind_Speed
11 10 9 9 9 8 6 5 4 4 3 2 1 1 2 4 6 5 5 5 5 6 8 8 7 5 3 3 6 8 8 8 8 8 9 9 10 10 9 9 11 13
10 10 11 12 11 9 7 6 5 4 3 2 2 1 1 1 5 6 5 5 5 5 7 8 8 6 5 5 6 7 7 8 7 8 9 10 10 10 10 11 13 14
12 12 13 13 11 9 8 7 6 4 3 1 0 0 1 1 3 5 5 4 4 5 5 6 7 7 6 6 7 7 7 8 8 7 8 10 10 10 11 12 13 13
13 13 13 12 8 7 6 6 5 3 2 1 1 1 2 1 2 4 5 4 5 6 6 6 7 7 7 7 7 8 9 8 8 8 10 11 10 10 11 13 13 12
14 13 12 10 7 6 5 4 4 2 2 3 3 3 3 3 3 4 4 4 6 7 7 7 7 7 7 7 8 8 9 9 10 10 10 11 10 9 10 11 11 10
15 13 12 10 8 7 5 4 4 2 2 3 4 4 4 4 3 4 3 4 8 9 7 7 8 7 6 6 7 8 9 10 11 11 10 10 9 9 10 9 8 7
14 13 12 10 9 8 6 5 4 2 2 3 4 5 4 3 3 3 4 6 9 8 7 7 6 6 5 5 6 9 10 12 12 12 11 11 10 10 11 10 9 8
15 13 12 11 10 8 6 6 5 3 2 3 4 4 2 3 4 3 5 8 10 8 8 7 5 5 4 4 6 9 11 12 13 13 13 12 12 12 12 11 10 9
15 14 13 11 10 8 7 6 5 4 3 3 3 3 4 4 4 4 6 9 10 9 8 8 7 7 6 5 7 8 10 12 13 13 13 13 13 13 13 13 12 12
16 15 14 11 9 8 6 6 6 4 3 3 4 4 5 5 5 5 6 9 10 9 8 8 8 8 7 7 8 8 9 11 13 13 12 12 12 12 13 14 15 15
16 15 14 11 9 7 6 7 7 5 4 4 6 6 7 7 7 7 6 6 8 8 8 7 7 8 9 9 10 10 11 12 13 12 11 10 10 10 10 12 15 17
15 14 14 12 10 8 7 8 7 5 4 5 7 7 7 8 8 7 7 5 4 6 7 7 7 8 10 10 11 11 12 13 13 12 12 11 10 10 9 10 12 14
17 17 16 14 12 10 9 9 7 5 5 7 9 8 8 7 7 5 5 4 3 3 5 7 8 9 11 11 12 12 13 13 13 13 12 11 11 11 10 10 9 11
19 19 17 15 13 11 11 9 7 6 7 8 10 9 8 6 6 5 4 4 3 2 3 4 6 9 11 12 13 13 13 13 13 12 12 12 12 12 12 11 10 10
18 16 14 14 14 13 12 10 8 8 9 11 11 11 8 7 6 6 5 5 4 4 3 3 3 5 8 11 13 14 13 13 13 13 13 13 13 14 14 13 12 12
16 14 14 16 16 15 13 12 10 9 10 12 12 12 10 9 8 7 6 6 6 6 6 5 3 2 4 7 10 12 13 14 14 14 14 14 14 14 15 15 15 15
17 16 16 16 16 15 14 14 13 12 11 11 12 12 11 11 10 8 8 8 7 7 7 6 5 3 3 4 6 8 11 13 14 15 16 16 17 17 17 17 17 17
19 19 17 16 16 16 16 15 15 15 14 12 12 12 13 12 10 11 11 11 10 9 9 8 7 6 7 7 7 8 9 10 12 14 16 18 19 20 20 20 20 20
19 19 18 17 18 18 18 17 17 16 16 16 14 13 14 13 10 11 13 15 14 13 13 13 12 12 12 12 12 12 13 13 13 14 14 15 17 18 20 21 22 23
15 15 15 16 16 16 16 17 16 16 16 16 15 14 14 14 12 13 15 17 17 17 16 16 16 16 15 15 15 15 16 17 18 18 19 18 17 18 18 20 21 22
16 14 15 15 14 13 14 15 15 15 14 14 14 15 15 16 15 16 17 18 19 19 19 18 17 17 17 16 17 16 17 18 19 21 22 23 23 23 22 22 22 22
17 16 17 17 16 15 15 14 13 13 13 14 15 15 16 16 17 17 18 18 20 21 21 21 20 20 19 19 19 18 19 19 20 21 22 24 25 26 27 27 27 27
13 13 13 12 12 11 11 12 12 11 12 13 14 15 15 15 16 17 17 18 19 21 23 24 24 24 25 25 24 23 23 22 22 23 24 25 26 27 28 30 31 31
5 5 5 4 5 5 5 7 9 10 11 13 13 14 14 15 15 15 16 17 17 18 20 21 22 23 24 26 27 28 27 26 25 24 25 27 28 29 29 30 31 32
2 1 3 4 5 6 6 5 5 6 9 11 13 14 14 15 16 16 16 17 17 18 19 20 21 21 22 24 25 27 28 29 28 27 26 27 29 30 31 30 30 31
6 4 4 5 6 8 9 9 10 11 11 12 14 15 16 17 18 19 19 20 21 21 22 23 24 24 24 25 25 25 26 28 28 28 28 27 27 29 30 30 29 29
Wind_Direction
182 180 177 174 169 169 174 184 192 200 194 145 114 175 249 240 223 212 208 199 190 192 197 204 208 212 226 203 183 189 197 195 191 193 194 191 188 189 192 189 181 183
183 183 178 173 167 168 174 181 198 207 193 156 122 118 13 245 210 207 208 196 191 203 209 210 216 225 229 210 188 190 197 196 198 200 191 184 185 186 186 180 174 176
187 184 176 171 165 162 165 172 188 197 186 175 157 336 5 23 199 207 214 218 217 212 200 195 204 206 200 195 191 197 202 201 205 200 180 174 178 180 178 174 172 173
185 180 174 170 164 157 161 171 184 191 198 237 279 297 321 340 232 217 212 216 216 203 185 173 175 172 172 179 186 194 197 195 194 185 171 169 170 168 167 165 164 164
178 175 171 170 166 162 166 180 196 201 224 260 284 296 304 306 271 247 237 203 192 192 181 165 158 151 153 165 175 182 184 181 178 171 169 169 164 162 164 164 165 163
173 171 168 167 167 170 178 191 203 221 246 263 281 291 290 281 252 243 237 189 182 185 178 163 155 145 139 151 168 172 172 174 173 170 173 171 163 162 165 171 180 177
171 171 169 168 168 174 186 194 199 214 242 261 279 284 270 221 198 200 192 182 181 180 176 170 163 151 140 150 172 176 174 177 178 178 182 180 174 172 171 178 192 193
170 173 173 172 173 180 188 193 200 212 236 268 270 257 210 165 171 179 180 184 186 186 185 188 192 190 181 173 181 186 184 185 187 187 190 192 189 188 185 185 192 197
170 174 178 179 180 187 191 190 199 209 222 251 239 200 157 146 164 184 185 183 186 195 200 204 213 218 217 205 191 192 193 193 195 196 199 203 204 204 202 199 197 199
173 175 183 189 191 195 196 189 192 203 209 202 184 168 150 145 151 166 179 181 183 193 200 204 214 217 217 212 199 197 199 196 196 198 202 208 214 214 211 207 202 200
179 180 186 196 207 210 204 189 183 193 202 183 171 162 150 143 137 131 140 166 186 197 202 204 209 209 206 204 200 198 198 193 191 191 194 201 209 211 208 203 200 201
183 192 193 199 215 217 200 187 181 186 197 181 172 164 151 144 137 125 115 119 165 198 205 202 199 197 197 197 195 193 190 188 184 183 186 191 195 197 196 194 195 202
188 199 201 201 213 210 188 179 177 184 193 185 176 167 157 154 153 143 129 119 123 161 185 190 190 191 191 189 188 187 186 186 184 183 187 188 187 188 189 188 189 198
196 202 202 200 204 191 173 171 178 186 188 186 181 172 165 171 178 176 173 169 162 151 157 172 185 194 195 191 187 187 190 193 192 190 190 190 190 192 195 197 197 200
199 203 200 193 183 165 157 165 177 184 185 183 183 179 180 196 203 201 200 201 205 207 206 199 190 200 208 207 201 198 199 202 204 204 203 202 201 202 205 209 212 215
195 193 187 178 167 158 163 170 169 173 180 181 183 188 198 210 212 208 209 215 221 224 229 237 240 227 225 225 221 217 217 217 218 220 220 221 222 221 220 221 224 228
185 183 180 173 167 169 175 174 168 168 177 186 195 204 211 217 221 222 220 221 226 230 235 243 246 241 236 239 237 233 234 234 234 235 236 238 239 239 238 238 239 242
183 185 185 181 180 182 180 178 175 174 182 197 209 217 222 223 227 229 226 225 227 232 238 244 248 251 250 252 253 250 248 246 245 245 245 247 249 250 249 249 250 252
184 187 186 184 186 186 185 186 185 184 192 202 208 216 223 225 228 226 224 226 229 231 236 241 246 251 254 256 258 259 259 259 256 254 253 254 257 258 258 257 257 257
169 179 180 180 185 190 193 194 193 195 201 204 203 206 213 219 222 221 221 225 228 229 232 235 238 243 246 251 254 257 259 261 261 260 259 259 259 260 262 263 263 264
138 147 152 153 158 173 186 190 192 196 202 205 204 205 211 216 220 222 223 225 227 228 229 230 232 236 240 245 250 253 256 257 258 259 258 258 258 259 259 260 261 263
133 140 145 146 147 152 160 168 177 183 190 198 205 210 214 218 222 226 229 231 233 234 234 234 237 241 244 247 250 254 257 258 258 257 256 255 255 256 257 258 259 259
137 139 142 149 154 147 142 153 168 180 187 193 202 208 213 219 225 230 235 238 241 243 244 245 246 248 249 250 252 254 256 259 260 260 258 257 255 255 256 257 258 258
136 146 145 154 170 164 152 161 174 186 195 200 207 212 217 223 228 234 239 242 244 246 248 249 249 248 249 249 249 251 252 254 257 260 261 261 261 260 260 260 260 260
55 194 231 237 221 230 252 246 225 220 218 217 219 223 226 230 232 235 239 242 245 246 248 249 248 247 247 247 247 249 250 251 252 254 257 259 262 264 266 266 265 264
328 317 285 271 260 262 271 269 263 262 255 246 242 240 241 241 241 241 242 244 246 248 248 249 249 246 245 246 247 247 249 250 250 250 251 253 256 260 264 266 267 266